Regional Weather Roundup
Issued by NWS

Home | Current Version | Previous Version | Graphics & Text | Print | Product List | Glossary On
Versions: 1 2 3 4 5 6 7 8 9 10 11 12 13 14 15 16 17 18 19 20 21 22 23 24 25 26 27 28 29 30 31 32 33 34 35 36 37 38 39 40 41 42 43 44 45 46 47 48 49 50
775
ASUS45 KSLC 232210
RWRUT

UTAH REGIONAL WEATHER ROUNDUP
NATIONAL WEATHER SERVICE SALT LAKE CITY UT
400 PM MDT MON APR 23 2018

UTZ001>011-023>025-232300-

NORTHERN UTAH

CITY           SKY/WX    TMP DP  RH WIND       PRES   REMARKS
BRIGHAM CITY   SUNNY     63  16  16 W5        30.16S
HILL AFB       NOT AVBL
LOGAN          MOSUNNY   61  31  32 N14G21    30.16S
OGDEN          SUNNY     63  16  16 W13       30.15F
SALT LAKE CITY PTSUNNY   65  24  21 NW14G25   30.15S
TOOELE VALLEY  MOSUNNY   61  32  33 N15G22    30.16S
WENDOVER       MOSUNNY   67  21  17 SE13      30.12F
HEBER CITY       N/A     64  21  19 SW18G24   30.10F
WEST JORDAN    SUNNY     62  32  32 NW22      30.15F

$$

UTZ011>015-024>027-232300-

CENTRAL/NORTHEAST UTAH

CITY           SKY/WX    TMP DP  RH WIND       PRES   REMARKS
PROVO AIRPORT  PTSUNNY   67  37  33 NW17      30.12S
MOAB/CANYONLAN SUNNY     81  18   9 SW13G21   29.95F
DELTA          MOSUNNY   68  27  21 NW7       30.12S
PRICE          PTSUNNY   67  22  18 W17G25    30.08F
RICHFIELD      SUNNY     70  28  21 W7G16     30.08F
ROOSEVELT      MOSUNNY   73  18  12 W28G35    30.05S
VERNAL         MOSUNNY   73  21  14 W15       30.01F

$$

UTZ013>016-019>022-027-232300-

SOUTHERN UTAH

CITY           SKY/WX    TMP DP  RH WIND       PRES   REMARKS
BRYCE CANYON   PTSUNNY   66  19  16 NW14G21   30.18F
CEDAR CITY     MOSUNNY   74  23  15 W6        30.06F
MILFORD        PTSUNNY   73  35  25 NE10      30.07F
ST GEORGE      PTCLDY    87  22   9 W10G23    29.94F
HANKSVILLE     MOSUNNY   81  19  10 S6        29.96F
KANAB          SUNNY     81  18   9 W8G22     30.08F
BLANDING         N/A     77  17  10 W18G24    30.13F

$$

REGIONAL REPORTS     COLORADO/ARIZONA

CITY           SKY/WX    TMP DP  RH WIND       PRES   REMARKS
CRAIG, CO      MOSUNNY   67  34  29 W16G25    30.03F
GRAND JUNCTION MOSUNNY   79  22  12 W14G28    29.97F
RIFLE, CO      MOSUNNY   75  22  13 SW23G36   29.99F
MONTROSE, CO   MOSUNNY   75  17  11 N12       30.02F
CORTEZ, CO     SUNNY     75   4   6 NW14G22   30.09F
COLORADO CITY    N/A     81  21  11 W10G22    30.09S
PAGE, AZ       SUNNY     84  17   8 NW8       29.98F
GRAND CANYON   SUNNY     75   9   8 SW15      30.16F
KINGMAN, AZ    SUNNY     87  23   9 SW16      30.01F
FLAGSTAFF, AZ  SUNNY     70  17  13 SW20G26   30.19F

$$

REGIONAL REPORTS    NEVADA/IDAHO/WYOMING

CITY           SKY/WX    TMP DP  RH WIND       PRES   REMARKS
LAS VEGAS, NV  MOSUNNY   92  20   7 VRB7G18   29.89F
ELY, NY        PTSUNNY   65  13  13 SW13G18   30.16F
ELKO, NV       SUNNY     63  22  20 SW8G18    30.18F
POCATELLO, ID  MOSUNNY   52  37  56 NE14G22   30.25S
BURLEY, ID     SUNNY     58  20  22 W13G18    30.20F
FORT BRIDGER,    N/A     57  10  15 W23G36    30.20R
EVANSTON, WY   SUNNY     54  18  24 W26G37    30.18S
ROCK SPRINGS,  SUNNY     59  17  19 W17G36    30.11S
KEMMERER, WY   SUNNY     52  18  25 W16G31    30.18S

$$




USA.gov is the U.S. government's official web portal to all federal, state and local government web resources and services.